[[{"header":{"parameterUnit":"m.s-1","parameterCategory":1,"la1":30.2991,"la2":30.254,"lo1":-89.0895,"lo2":-89.0444,"dy":0.0017,"dx":0.0017,"nx":28,"ny":28,"refTime":"2025-04-07T03:00:00:Z","depth":0,"parameterNumber":2,"parameterNumberName":"U-component_of_WINDS"},"data":[0,0,0,0,0,0,0,0,0,0,0,0,0,0,0,0,0,0,0,0,0,0,0,0,0,0,0,0,0,0,0,0,0,0,0,0,0,0,0,0,0,0,0,0,0,0,0,0,0,0,0,0,0,0,0,0,0,0,2.1022,2.1023,0,2.1077,2.1077,2.1078,2.1065,2.1064,2.1063,2.1062,2.1118,2.1121,2.1123,0,0,0,0,0,0,0,0,0,0,0,0,0,2.0908,2.091,2.1022,2.1023,2.1023,2.1077,2.1077,2.1078,2.1065,2.1064,2.1063,2.1061,2.1117,2.112,2.1123,0,0,0,0,0,0,0,0,0,0,0,0,0,2.096,2.0911,2.1022,2.1023,2.1024,2.1077,2.1077,2.1078,2.1065,2.1064,2.1062,2.1061,2.1116,2.112,2.1124,2.1178,0,0,2.1135,2.1137,0,0,0,0,0,0,0,0,2.0957,2.0964,2.1022,2.1023,2.1024,2.1062,2.1058,2.1112,2.1066,2.105,2.1062,2.106,2.1101,2.1106,2.112,2.1181,2.1183,2.1135,2.1138,2.1139,2.114,0,0,0,0,0,0,0,2.0953,2.0961,2.1044,2.1023,2.1024,2.1022,2.1027,2.1068,2.1084,2.1051,2.105,2.1057,2.1101,2.1116,2.1121,2.1184,2.1135,2.1139,2.1141,2.1142,2.1295,2.1297,0,0,0,0,0,0,2.0949,2.0958,2.1042,2.1045,2.0986,2.1025,2.1031,2.1052,2.1083,2.1086,2.1058,2.1056,2.111,2.1116,2.1123,2.119,2.1139,2.1143,2.1145,2.1293,2.1295,2.1297,0,0,0,0,0,0,2.0946,2.0956,2.104,2.1002,2.1012,2.1029,2.1052,2.1054,2.1068,2.1088,2.1091,2.107,2.1109,2.1117,2.1165,2.1191,2.1144,2.1148,2.1291,2.1294,2.1296,2.1323,0,0,0,0,0,0,2.0943,2.0955,2.0976,2.1002,2.1014,2.1081,2.1053,2.1056,2.1075,2.1073,2.1101,2.1104,2.1109,2.1159,2.1169,2.1196,2.1151,2.1289,2.1292,2.1295,2.132,2.1327,2.1332,0,0,0,0,0,2.0939,2.0981,2.0977,2.0987,2.104,2.1082,2.1089,2.1094,2.1077,2.1098,2.1111,2.1103,2.1187,2.1164,2.1175,2.1203,2.1287,2.1291,2.1295,2.1317,2.1325,2.1332,0,0,0,0,0,0,2.0957,2.0984,2.098,2.1032,2.1055,2.108,2.1106,2.1102,2.113,2.1127,2.1132,2.1138,2.1187,2.12,2.1174,2.1259,2.1235,2.1241,2.1248,2.1256,2.1262,2.1257,2.1154,0,0,0,0,0,2.0967,2.0999,2.1021,2.1065,2.1076,2.109,2.1108,2.111,2.1134,2.1143,2.116,2.1184,2.1216,2.1237,2.1267,2.1322,2.1329,2.1347,2.1353,2.1358,2.1363,2.1395,2.1403,2.1311,2.1311,2.1311,0,0,2.0988,2.1007,2.1026,2.1069,2.1087,2.112,2.1098,2.1133,2.1158,2.1149,2.1195,2.1208,2.1235,2.1287,2.1311,2.1299,2.1391,2.1363,2.1367,2.137,2.14,2.1409,2.1416,2.1314,2.1313,2.1313,0,0,2.1043,2.106,2.1099,2.1118,2.1145,2.1154,2.1164,2.119,2.1198,2.1245,2.1239,2.1269,2.1323,2.1343,2.136,2.1425,2.1419,2.1435,2.1466,2.1497,2.1504,2.1511,2.1535,2.1543,2.144,2.144,2.1441,0,2.1065,2.1115,2.1119,2.1156,2.1175,2.1169,2.1209,2.1227,2.1263,2.1277,2.1264,2.1333,2.1351,2.1408,2.1424,2.1438,2.145,2.1431,2.1503,2.1509,2.1516,2.1538,2.1547,2.1442,2.1442,2.1442,2.1442,0,2.1141,2.1176,2.1204,2.1239,2.1262,2.13,2.1311,2.1333,2.1334,2.1345,2.1393,2.1414,2.1449,2.1463,2.1463,2.1521,2.1513,2.1501,2.1477,2.1526,2.1548,2.1556,2.1445,2.1444,2.1444,2.1443,0,0,2.1208,2.1247,2.1257,2.1273,2.1304,2.1331,2.137,2.1405,2.1424,2.145,2.1483,2.153,2.152,2.154,2.1543,2.157,2.1621,2.1555,2.1556,2.1567,2.1686,2.1695,2.1705,2.1617,2.1619,2.162,2.1684,0,2.1266,2.1333,2.1339,2.14,2.1432,2.1428,2.1461,2.1485,2.1496,2.1526,2.1538,2.1572,2.1556,2.1568,2.1594,2.1609,2.1645,2.1604,2.1648,2.165,2.1641,2.1716,2.1724,2.1783,2.1692,2.1694,2.1695,0,2.1342,2.137,2.1434,2.1462,2.1476,2.1506,2.1539,2.1567,2.1594,2.1601,2.1624,2.1623,2.1664,2.1639,2.1696,2.1668,2.1687,2.1697,2.1699,2.1703,2.1675,2.1722,2.1802,2.1811,2.1708,2.1707,2.1706,0,2.1384,2.1439,2.1484,2.1499,2.1532,2.1554,2.1569,2.1594,2.1615,2.1644,2.1658,2.1691,2.171,2.1736,2.1746,2.1727,2.1802,2.1778,2.1809,2.1809,2.1825,2.1824,2.191,2.1837,2.1837,2.1837,2.1836,0,2.1448,2.1488,2.1504,2.1532,2.1577,2.1584,2.1628,2.1642,2.1665,2.1696,2.1695,2.1724,2.1735,2.1766,2.1774,2.182,2.1829,2.1836,2.1837,2.1836,2.1835,2.1848,2.1844,2.1839,2.1838,2.1838,2.1838,0,2.1503,2.1515,2.1565,2.1593,2.1601,2.1633,2.1657,2.1685,2.1696,2.1736,2.1746,2.1764,2.1801,2.1814,2.1859,2.1864,2.1918,2.1916,2.1909,2.1909,2.194,2.1937,2.2037,2.2051,2.1969,2.197,2.197,0,2.1543,2.1573,2.1605,2.1626,2.1641,2.1675,2.1697,2.1706,2.1729,2.1762,2.1786,2.1823,2.1853,2.1913,2.1931,2.1966,2.1965,2.1998,2.197,2.1968,2.1966,2.1964,2.1967,2.2003,2.2003,2.2004,2.2005,0,2.1612,2.1617,2.1648,2.1682,2.1708,2.1735,2.1761,2.1779,2.1792,2.1818,2.1856,2.188,2.1926,2.1963,2.1999,2.2016,2.2013,2.2013,2.2023,2.2021,2.2016,2.202,2.1923,2.2011,2.201,2.201,2.2009,2.2009,2.1661,2.1688,2.1715,2.175,2.1771,2.1796,2.1823,2.1839,2.1871,2.1909,2.1913,2.1955,2.1983,2.2031,2.2049,2.2082,2.2073,2.2086,2.2089,2.2092,2.2095,2.2011,2.2089,2.2088,2.2088,2.2088,2.2088,0,2.173,2.1748,2.178,2.1817,2.1845,2.184,2.187,2.1894,2.193,2.1956,2.1986,2.2031,2.2068,2.2089,2.2126,2.2148,2.2148,2.2158,2.2156,2.216,2.2101,2.2089,2.2157,2.2157,2.2157,2.2157,2.2157,2.2157,2.177,2.1816,2.1825,2.1881,2.1899,2.1939,2.1957,2.198,2.2001,2.2051,2.2082,2.2095,2.212,2.2159,2.2193,2.2198,2.2212,2.2222,2.2227,2.2171,2.2164,2.2157,2.2146,2.2225,2.2225,2.2283,2.2284,2.2284]},{"header":{"parameterUnit":"m.s-1","parameterCategory":1,"la1":30.2991,"la2":30.254,"lo1":-89.0895,"lo2":-89.0444,"dy":0.0017,"dx":0.0017,"nx":28,"ny":28,"refTime":"2025-04-07T03:00:00:Z","depth":0,"parameterNumber":3,"parameterNumberName":"V-component_of_WINDS"},"data":[0,0,0,0,0,0,0,0,0,0,0,0,0,0,0,0,0,0,0,0,0,0,0,0,0,0,0,0,0,0,0,0,0,0,0,0,0,0,0,0,0,0,0,0,0,0,0,0,0,0,0,0,0,0,0,0,0,0,-6.7155,-6.7157,0,-6.7314,-6.7316,-6.7317,-6.7273,-6.727,-6.7266,-6.7263,-6.7423,-6.743,-6.7437,0,0,0,0,0,0,0,0,0,0,0,0,0,-6.6811,-6.6818,-6.7155,-6.7157,-6.7159,-6.7313,-6.7316,-6.7318,-6.7273,-6.7269,-6.7265,-6.7262,-6.7421,-6.7429,-6.7438,0,0,0,0,0,0,0,0,0,0,0,0,0,-6.6964,-6.682,-6.7155,-6.7156,-6.7157,-6.7313,-6.7316,-6.7318,-6.7274,-6.7269,-6.7264,-6.726,-6.7418,-6.7429,-6.7439,-6.7603,0,0,-6.7473,-6.7477,0,0,0,0,0,0,0,0,-6.6956,-6.6977,-6.7153,-6.7156,-6.7158,-6.7269,-6.7253,-6.7414,-6.7275,-6.723,-6.7263,-6.7258,-6.7376,-6.739,-6.743,-6.7611,-6.7618,-6.7474,-6.748,-6.7485,-6.7488,0,0,0,0,0,0,0,-6.6945,-6.697,-6.7218,-6.7156,-6.7159,-6.7147,-6.7164,-6.7283,-6.7328,-6.7233,-6.723,-6.725,-6.7376,-6.7419,-6.7433,-6.762,-6.7473,-6.7483,-6.749,-6.7494,-6.7942,-6.7948,0,0,0,0,0,0,-6.6933,-6.6961,-6.7213,-6.7223,-6.7043,-6.7157,-6.7176,-6.7238,-6.7326,-6.7335,-6.7254,-6.7247,-6.7403,-6.7421,-6.7439,-6.7636,-6.7485,-6.7495,-6.7501,-6.7937,-6.7944,-6.7949,0,0,0,0,0,0,-6.6926,-6.6956,-6.7206,-6.7091,-6.7122,-6.7168,-6.7239,-6.7244,-6.7287,-6.7342,-6.7349,-6.7291,-6.74,-6.7423,-6.7563,-6.7641,-6.75,-6.751,-6.7931,-6.7939,-6.7947,-6.8032,0,0,0,0,0,0,-6.6916,-6.6954,-6.7017,-6.7093,-6.7129,-6.7329,-6.7244,-6.725,-6.7306,-6.7299,-6.7378,-6.7387,-6.7398,-6.7547,-6.7574,-6.7653,-6.7518,-6.7924,-6.7934,-6.7944,-6.8023,-6.8042,-6.8059,0,0,0,0,0,-6.6904,-6.7035,-6.7021,-6.7051,-6.7209,-6.7333,-6.7354,-6.7365,-6.7313,-6.7377,-6.7412,-6.7384,-6.7628,-6.7561,-6.7591,-6.7675,-6.7919,-6.7931,-6.7943,-6.8014,-6.8038,-6.8059,0,0,0,0,0,0,-6.6966,-6.7044,-6.703,-6.7189,-6.7255,-6.7326,-6.7406,-6.739,-6.7471,-6.7461,-6.7471,-6.7489,-6.7631,-6.7667,-6.7592,-6.7838,-6.7766,-6.7785,-6.781,-6.7833,-6.7851,-6.7839,-6.7527,0,0,0,0,0,-6.6998,-6.7093,-6.7157,-6.7291,-6.7325,-6.736,-6.7415,-6.7418,-6.7486,-6.7513,-6.7559,-6.7625,-6.7717,-6.7777,-6.7864,-6.8028,-6.8044,-6.81,-6.8118,-6.8133,-6.8149,-6.8237,-6.8263,-6.7989,-6.7989,-6.7989,0,0,-6.7065,-6.712,-6.718,-6.7305,-6.7356,-6.7454,-6.7384,-6.749,-6.7562,-6.7529,-6.7664,-6.7699,-6.7774,-6.7926,-6.7995,-6.796,-6.8228,-6.8149,-6.816,-6.8168,-6.8252,-6.8278,-6.8301,-6.7997,-6.7996,-6.7995,0,0,-6.7238,-6.7289,-6.7406,-6.746,-6.7539,-6.7561,-6.7589,-6.7663,-6.7686,-6.7821,-6.7798,-6.7884,-6.8041,-6.8096,-6.8144,-6.8337,-6.8314,-6.8365,-6.846,-6.8546,-6.8567,-6.8587,-6.8655,-6.8679,-6.8381,-6.8381,-6.8381,0,-6.7311,-6.7458,-6.7469,-6.7577,-6.7632,-6.7608,-6.7726,-6.7777,-6.788,-6.7918,-6.7878,-6.8076,-6.8124,-6.8288,-6.8335,-6.8376,-6.8407,-6.8356,-6.8564,-6.8583,-6.8601,-6.8666,-6.8692,-6.8386,-6.8386,-6.8385,-6.8385,0,-6.7544,-6.7647,-6.7732,-6.7833,-6.7898,-6.8011,-6.8037,-6.8101,-6.8099,-6.8125,-6.8263,-6.8321,-6.8419,-6.8458,-6.8456,-6.8622,-6.8598,-6.8561,-6.8488,-6.8633,-6.8694,-6.8719,-6.8394,-6.8392,-6.8391,-6.8389,0,0,-6.776,-6.7866,-6.7897,-6.7942,-6.8027,-6.8106,-6.8217,-6.8314,-6.8369,-6.8441,-6.8534,-6.8668,-6.8634,-6.8689,-6.8693,-6.8769,-6.8917,-6.8722,-6.8724,-6.8756,-6.9102,-6.9129,-6.9158,-6.8903,-6.8908,-6.8912,-6.9096,0,-6.7939,-6.8136,-6.8149,-6.8326,-6.842,-6.8398,-6.8495,-6.8558,-6.8586,-6.8669,-6.8699,-6.8794,-6.8742,-6.8775,-6.8849,-6.8884,-6.8987,-6.887,-6.8989,-6.8993,-6.897,-6.919,-6.922,-6.9391,-6.912,-6.9124,-6.9127,0,-6.8175,-6.8255,-6.8442,-6.8514,-6.8554,-6.8641,-6.8731,-6.8811,-6.8881,-6.8896,-6.8957,-6.895,-6.9063,-6.8987,-6.9143,-6.9063,-6.9112,-6.9137,-6.9143,-6.9154,-6.9068,-6.9207,-6.9446,-6.9471,-6.9165,-6.9162,-6.9159,0,-6.8312,-6.8467,-6.8599,-6.8639,-6.8726,-6.8787,-6.8826,-6.8892,-6.8949,-6.9027,-6.9064,-6.9154,-6.9204,-6.9273,-6.929,-6.9233,-6.9446,-6.9371,-6.946,-6.946,-6.9505,-6.9502,-6.9755,-6.9538,-6.9538,-6.9537,-6.9537,0,-6.8511,-6.8627,-6.8662,-6.8743,-6.8871,-6.8884,-6.9011,-6.9046,-6.9104,-6.9191,-6.9177,-6.9258,-6.9277,-6.9362,-6.9376,-6.9502,-6.9525,-6.9539,-6.9541,-6.954,-6.9539,-6.9572,-6.956,-6.9544,-6.9543,-6.9541,-6.954,0,-6.8686,-6.8715,-6.8857,-6.8928,-6.8949,-6.904,-6.9101,-6.9178,-6.9204,-6.9314,-6.9341,-6.9381,-6.9481,-6.9505,-6.9623,-6.9633,-6.9782,-6.9773,-6.9759,-6.9758,-6.9846,-6.9837,-7.0129,-7.0167,-6.9926,-6.9928,-6.993,0,-6.8811,-6.8899,-6.898,-6.9038,-6.908,-6.9173,-6.9231,-6.9247,-6.9309,-6.9395,-6.9462,-6.956,-6.9639,-6.9798,-6.9838,-6.9928,-6.9921,-7.0017,-6.9934,-6.993,-6.9922,-6.9916,-6.9924,-7.0032,-7.0035,-7.0037,-7.0039,0,-6.9029,-6.9039,-6.9124,-6.9215,-6.9286,-6.9358,-6.9427,-6.9474,-6.9499,-6.9569,-6.9671,-6.9732,-6.9853,-6.995,-7.0041,-7.008,-7.0064,-7.0065,-7.009,-7.0089,-7.0077,-7.0084,-6.9801,-7.0058,-7.0056,-7.0054,-7.0053,-7.0053,-6.9183,-6.926,-6.9329,-6.9424,-6.9478,-6.9543,-6.9619,-6.9655,-6.974,-6.984,-6.9844,-6.9955,-7.0022,-7.0142,-7.0187,-7.0273,-7.0243,-7.028,-7.0289,-7.0298,-7.0306,-7.0064,-7.0289,-7.0289,-7.0288,-7.0288,-7.0288,0,-6.9399,-6.9443,-6.9531,-6.9627,-6.9703,-6.9682,-6.9756,-6.982,-6.9918,-6.9983,-7.0061,-7.0178,-7.0272,-7.0319,-7.0412,-7.0471,-7.0466,-7.0495,-7.0491,-7.05,-7.0327,-7.0296,-7.0498,-7.0498,-7.0498,-7.0498,-7.0498,-7.0498,-6.9521,-6.965,-6.9668,-6.9824,-6.9866,-6.9975,-7.002,-7.0079,-7.013,-7.0262,-7.034,-7.037,-7.0428,-7.0525,-7.061,-7.0621,-7.0655,-7.0688,-7.0696,-7.0533,-7.0512,-7.0491,-7.0462,-7.0696,-7.0696,-7.0861,-7.0863,-7.0864]}]]